Volver al catálogo

STARLINK-37019

ActivoComunicacionesVLEO
NORAD 68273·PAYLOAD·🇺🇸 United States

Lanzado Mar 19, 2026 desde Vandenberg Space Force Base

Loading…

Próximos Pases (próximas 24 horas)

TLE

ActualizadoSource: CelesTrak SupGP

Época: Sep 15, 2026, 04:06 UTC

1 68273C 26055M   26258.17131944  .00051057  00000+0  15084-2 0  2582
2 68273  53.1579 154.7187 0001296  76.5537 290.0434 15.34366445    16

Sigue STARLINK-37019 en tiempo real con AllMySat

Download on the App Store